Time,TemperatureF,DewpointF,PressureIn,WindDirection,WindDirectionDegrees,WindSpeedMPH,WindSpeedGustMPH,Humidity,HourlyPrecipIn,Conditions,Clouds,dailyrainin,SoftwareType,DateUTC
2013-02-12 00:00:00,44.3,41.9,30.29,North,0,0.0,0.0,91,0.00,,,0.00,WUHU216HW,2013-02-12 08:00:00,
2013-02-12 00:05:00,44.3,41.9,30.30,North,0,0.0,0.0,91,0.00,,,0.00,WUHU216HW,2013-02-12 08:05:00,
2013-02-12 00:10:00,44.3,41.9,30.29,North,0,0.0,0.0,91,0.00,,,0.00,WUHU216HW,2013-02-12 08:10:00,
2013-02-12 00:15:00,44.3,41.9,30.29,North,0,0.0,0.0,91,0.00,,,0.00,WUHU216HW,2013-02-12 08:15:00,
2013-02-12 00:20:00,44.3,41.9,30.29,North,0,0.0,0.0,91,0.00,,,0.00,WUHU216HW,2013-02-12 08:20:00,
2013-02-12 00:25:00,44.3,41.9,30.29,North,0,0.0,0.0,91,0.00,,,0.00,WUHU216HW,2013-02-12 08:25:00,
2013-02-12 00:30:00,45.0,42.6,30.29,North,0,0.0,0.0,91,0.00,,,0.00,WUHU216HW,2013-02-12 08:30:00,
2013-02-12 00:35:00,45.2,42.8,30.29,North,0,0.0,0.0,91,0.00,,,0.00,WUHU216HW,2013-02-12 08:35:00,
2013-02-12 00:40:00,45.2,42.8,30.29,North,0,0.0,0.0,91,0.00,,,0.00,WUHU216HW,2013-02-12 08:40:00,
2013-02-12 00:45:00,44.8,42.4,30.29,North,0,0.0,0.0,91,0.00,,,0.00,WUHU216HW,2013-02-12 08:45:00,
2013-02-12 00:50:00,44.6,42.2,30.29,North,0,0.0,0.0,91,0.00,,,0.00,WUHU216HW,2013-02-12 08:50:00,
2013-02-12 00:55:00,44.5,42.0,30.29,North,0,0.0,0.0,91,0.00,,,0.00,WUHU216HW,2013-02-12 08:55:00,
2013-02-12 01:00:00,44.3,41.9,30.28,North,0,0.0,0.0,91,0.00,,,0.00,WUHU216HW,2013-02-12 09:00:00,
2013-02-12 01:05:00,44.3,41.9,30.28,North,0,0.0,0.0,91,0.00,,,0.00,WUHU216HW,2013-02-12 09:05:00,
2013-02-12 01:10:00,44.3,41.9,30.29,North,0,0.0,0.0,91,0.00,,,0.00,WUHU216HW,2013-02-12 09:10:00,
2013-02-12 01:15:00,44.3,41.9,30.29,North,0,0.0,0.0,91,0.00,,,0.00,WUHU216HW,2013-02-12 09:15:00,
2013-02-12 01:20:00,44.3,41.9,30.29,North,0,0.0,0.0,91,0.00,,,0.00,WUHU216HW,2013-02-12 09:20:00,
2013-02-12 01:25:00,44.3,42.1,30.28,North,0,0.0,0.0,92,0.00,,,0.00,WUHU216HW,2013-02-12 09:25:00,
2013-02-12 01:30:00,44.3,42.1,30.28,North,0,0.0,0.0,92,0.00,,,0.00,WUHU216HW,2013-02-12 09:30:00,
2013-02-12 01:35:00,44.3,42.1,30.29,North,0,0.0,0.0,92,0.00,,,0.00,WUHU216HW,2013-02-12 09:35:00,
2013-02-12 01:40:00,44.3,42.1,30.29,North,0,0.0,0.0,92,0.00,,,0.00,WUHU216HW,2013-02-12 09:40:00,
2013-02-12 01:45:00,45.0,42.6,30.28,North,0,0.0,0.0,91,0.00,,,0.00,WUHU216HW,2013-02-12 09:45:00,
2013-02-12 01:50:00,45.2,42.8,30.28,North,0,0.0,0.0,91,0.00,,,0.00,WUHU216HW,2013-02-12 09:50:00,
2013-02-12 01:55:00,45.4,43.2,30.28,North,0,0.0,0.0,92,0.00,,,0.00,WUHU216HW,2013-02-12 09:55:00,
2013-02-12 02:00:00,45.0,42.8,30.28,North,0,0.0,0.0,92,0.00,,,0.00,WUHU216HW,2013-02-12 10:00:00,
2013-02-12 02:05:00,44.6,42.2,30.28,North,0,0.0,0.0,91,0.00,,,0.00,WUHU216HW,2013-02-12 10:05:00,
2013-02-12 02:10:00,44.5,42.0,30.28,North,0,0.0,0.0,91,0.00,,,0.00,WUHU216HW,2013-02-12 10:10:00,
2013-02-12 02:15:00,44.5,42.0,30.28,North,0,0.0,0.0,91,0.00,,,0.00,WUHU216HW,2013-02-12 10:15:00,
2013-02-12 02:20:00,44.5,42.3,30.29,North,0,0.0,0.0,92,0.00,,,0.00,WUHU216HW,2013-02-12 10:20:00,
2013-02-12 02:25:00,44.3,42.1,30.29,North,0,0.0,0.0,92,0.00,,,0.00,WUHU216HW,2013-02-12 10:25:00,
2013-02-12 02:30:00,44.3,42.1,30.29,North,0,0.0,0.0,92,0.00,,,0.00,WUHU216HW,2013-02-12 10:30:00,
2013-02-12 02:35:00,44.3,42.1,30.29,North,0,0.0,0.0,92,0.00,,,0.00,WUHU216HW,2013-02-12 10:35:00,
2013-02-12 02:40:00,44.3,42.1,30.29,North,0,0.0,0.0,92,0.00,,,0.00,WUHU216HW,2013-02-12 10:40:00,
2013-02-12 02:45:00,44.3,42.1,30.29,North,0,0.0,0.0,92,0.00,,,0.00,WUHU216HW,2013-02-12 10:45:00,
2013-02-12 02:50:00,44.3,42.1,30.29,North,0,0.0,0.0,92,0.00,,,0.00,WUHU216HW,2013-02-12 10:50:00,
2013-02-12 02:55:00,44.5,42.3,30.29,North,0,0.0,0.0,92,0.00,,,0.00,WUHU216HW,2013-02-12 10:55:00,
2013-02-12 03:00:00,45.0,42.8,30.29,North,0,0.0,0.0,92,0.00,,,0.00,WUHU216HW,2013-02-12 11:00:00,
2013-02-12 03:05:00,45.2,42.8,30.29,North,0,0.0,0.0,91,0.00,,,0.00,WUHU216HW,2013-02-12 11:05:00,
2013-02-12 03:10:00,45.4,42.9,30.29,North,0,0.0,0.0,91,0.00,,,0.00,WUHU216HW,2013-02-12 11:10:00,
2013-02-12 03:15:00,45.0,42.6,30.29,North,0,0.0,0.0,91,0.00,,,0.00,WUHU216HW,2013-02-12 11:15:00,
2013-02-12 03:20:00,44.8,42.4,30.29,North,0,0.0,0.0,91,0.00,,,0.00,WUHU216HW,2013-02-12 11:20:00,
2013-02-12 03:25:00,44.8,42.7,30.29,North,0,0.0,0.0,92,0.00,,,0.00,WUHU216HW,2013-02-12 11:25:00,
2013-02-12 03:30:00,44.5,42.3,30.28,North,0,0.0,0.0,92,0.00,,,0.00,WUHU216HW,2013-02-12 11:30:00,
2013-02-12 03:35:00,44.5,42.3,30.29,North,0,0.0,0.0,92,0.00,,,0.00,WUHU216HW,2013-02-12 11:35:00,
2013-02-12 03:40:00,44.5,42.3,30.29,North,0,0.0,0.0,92,0.00,,,0.00,WUHU216HW,2013-02-12 11:40:00,
2013-02-12 03:45:00,44.5,42.3,30.29,North,0,0.0,0.0,92,0.00,,,0.00,WUHU216HW,2013-02-12 11:45:00,
2013-02-12 03:50:00,44.5,42.6,30.29,North,0,0.0,0.0,93,0.00,,,0.00,WUHU216HW,2013-02-12 11:50:00,
2013-02-12 03:55:00,44.5,42.6,30.29,North,0,0.0,0.0,93,0.00,,,0.00,WUHU216HW,2013-02-12 11:55:00,
2013-02-12 04:00:00,44.3,42.4,30.29,North,0,0.0,0.0,93,0.00,,,0.00,WUHU216HW,2013-02-12 12:00:00,
2013-02-12 04:05:00,44.3,42.4,30.29,North,0,0.0,0.0,93,0.00,,,0.00,WUHU216HW,2013-02-12 12:05:00,
2013-02-12 04:10:00,44.3,42.4,30.29,North,0,0.0,0.0,93,0.00,,,0.00,WUHU216HW,2013-02-12 12:10:00,
2013-02-12 04:15:00,44.8,42.9,30.29,North,0,0.0,0.0,93,0.00,,,0.00,WUHU216HW,2013-02-12 12:15:00,
2013-02-12 04:20:00,45.0,42.8,30.29,North,0,0.0,0.0,92,0.00,,,0.00,WUHU216HW,2013-02-12 12:20:00,
2013-02-12 04:25:00,45.4,42.9,30.29,North,0,0.0,0.0,91,0.00,,,0.00,WUHU216HW,2013-02-12 12:25:00,
2013-02-12 04:30:00,45.0,42.6,30.29,North,0,0.0,0.0,91,0.00,,,0.00,WUHU216HW,2013-02-12 12:30:00,
2013-02-12 04:35:00,44.8,42.7,30.29,North,0,0.0,0.0,92,0.01,,,0.00,WUHU216HW,2013-02-12 12:35:00,
2013-02-12 04:40:00,44.6,42.5,30.29,North,0,0.0,0.0,92,0.01,,,0.01,WUHU216HW,2013-02-12 12:40:00,
2013-02-12 04:45:00,44.5,42.3,30.28,North,0,0.0,0.0,92,0.01,,,0.01,WUHU216HW,2013-02-12 12:45:00,
2013-02-12 04:50:00,44.5,42.3,30.28,North,0,0.0,0.0,92,0.01,,,0.01,WUHU216HW,2013-02-12 12:50:00,
2013-02-12 04:55:00,44.5,42.3,30.28,North,0,0.0,0.0,92,0.01,,,0.01,WUHU216HW,2013-02-12 12:55:00,
2013-02-12 05:00:00,44.3,42.1,30.28,North,0,0.0,0.0,92,0.01,,,0.01,WUHU216HW,2013-02-12 13:00:00,
2013-02-12 05:05:00,44.3,42.4,30.28,North,0,0.0,0.0,93,0.01,,,0.01,WUHU216HW,2013-02-12 13:05:00,
2013-02-12 05:10:00,44.3,42.4,30.28,North,0,0.0,0.0,93,0.01,,,0.01,WUHU216HW,2013-02-12 13:10:00,
2013-02-12 05:15:00,44.3,42.4,30.28,North,0,0.0,0.0,93,0.01,,,0.01,WUHU216HW,2013-02-12 13:15:00,
2013-02-12 05:20:00,44.3,42.4,30.28,North,0,0.0,0.0,93,0.01,,,0.01,WUHU216HW,2013-02-12 13:20:00,
2013-02-12 05:25:00,44.3,42.4,30.29,North,0,0.0,0.0,93,0.01,,,0.01,WUHU216HW,2013-02-12 13:25:00,
2013-02-12 05:30:00,44.8,42.9,30.28,North,0,0.0,0.0,93,0.01,,,0.01,WUHU216HW,2013-02-12 13:30:00,
2013-02-12 05:35:00,44.8,42.7,30.28,SW,225,0.0,0.9,92,0.00,,,0.01,WUHU216HW,2013-02-12 13:35:00,
2013-02-12 05:40:00,44.6,42.5,30.28,SW,225,0.0,0.9,92,0.00,,,0.01,WUHU216HW,2013-02-12 13:40:00,
2013-02-12 05:45:00,45.0,42.8,30.29,North,0,0.0,0.0,92,0.00,,,0.01,WUHU216HW,2013-02-12 13:45:00,
2013-02-12 05:50:00,45.0,42.8,30.29,SW,225,1.1,1.1,92,0.00,,,0.01,WUHU216HW,2013-02-12 13:50:00,
2013-02-12 05:55:00,44.6,42.5,30.29,SW,225,0.9,1.1,92,0.00,,,0.01,WUHU216HW,2013-02-12 13:55:00,
2013-02-12 06:00:00,44.6,42.5,30.29,North,0,0.0,1.1,92,0.00,,,0.01,WUHU216HW,2013-02-12 14:00:00,
2013-02-12 06:05:00,45.0,42.8,30.29,SW,225,0.0,0.9,92,0.00,,,0.01,WUHU216HW,2013-02-12 14:05:00,
2013-02-12 06:10:00,44.6,42.5,30.29,SW,225,0.4,0.4,92,0.00,,,0.01,WUHU216HW,2013-02-12 14:10:00,
2013-02-12 06:15:00,44.5,42.3,30.29,SW,225,0.0,0.4,92,0.00,,,0.01,WUHU216HW,2013-02-12 14:15:00,
2013-02-12 06:20:00,44.5,42.3,30.29,SW,225,0.0,0.0,92,0.00,,,0.01,WUHU216HW,2013-02-12 14:20:00,
2013-02-12 06:25:00,44.5,42.3,30.29,North,0,0.0,0.0,92,0.00,,,0.01,WUHU216HW,2013-02-12 14:25:00,
2013-02-12 06:30:00,45.0,42.8,30.29,North,0,0.0,0.0,92,0.00,,,0.01,WUHU216HW,2013-02-12 14:30:00,
2013-02-12 06:35:00,45.2,43.0,30.29,North,0,0.0,0.0,92,0.00,,,0.01,WUHU216HW,2013-02-12 14:35:00,
2013-02-12 06:40:00,45.4,42.9,30.29,North,0,0.0,0.0,91,0.00,,,0.01,WUHU216HW,2013-02-12 14:40:00,
2013-02-12 06:45:00,44.8,42.4,30.29,North,0,0.0,0.0,91,0.00,,,0.01,WUHU216HW,2013-02-12 14:45:00,
2013-02-12 06:50:00,44.6,42.5,30.29,North,0,0.0,0.0,92,0.00,,,0.01,WUHU216HW,2013-02-12 14:50:00,
2013-02-12 06:55:00,44.5,42.3,30.29,North,0,0.0,0.0,92,0.00,,,0.01,WUHU216HW,2013-02-12 14:55:00,
2013-02-12 07:00:00,44.5,42.3,30.29,North,0,0.0,0.0,92,0.00,,,0.01,WUHU216HW,2013-02-12 15:00:00,
2013-02-12 07:05:00,44.5,42.6,30.29,North,0,0.0,0.0,93,0.00,,,0.01,WUHU216HW,2013-02-12 15:05:00,
2013-02-12 07:10:00,44.5,42.6,30.29,North,0,0.0,0.0,93,0.00,,,0.01,WUHU216HW,2013-02-12 15:10:00,
2013-02-12 07:15:00,44.5,42.6,30.29,North,0,0.0,0.0,93,0.00,,,0.01,WUHU216HW,2013-02-12 15:15:00,
2013-02-12 07:20:00,44.5,42.6,30.29,North,0,0.0,0.0,93,0.00,,,0.01,WUHU216HW,2013-02-12 15:20:00,
2013-02-12 07:25:00,44.5,42.6,30.29,North,0,0.0,0.0,93,0.00,,,0.01,WUHU216HW,2013-02-12 15:25:00,
2013-02-12 07:30:00,44.5,42.6,30.30,North,0,0.0,0.0,93,0.00,,,0.01,WUHU216HW,2013-02-12 15:30:00,
2013-02-12 07:35:00,44.3,42.4,30.30,North,0,0.0,0.0,93,0.00,,,0.01,WUHU216HW,2013-02-12 15:35:00,
2013-02-12 07:40:00,44.5,42.6,30.30,SW,225,0.9,0.9,93,0.00,,,0.01,WUHU216HW,2013-02-12 15:40:00,
2013-02-12 07:45:00,44.5,42.6,30.30,SW,225,0.4,0.9,93,0.00,,,0.01,WUHU216HW,2013-02-12 15:45:00,
2013-02-12 07:50:00,44.6,42.8,30.30,South,180,1.3,1.3,93,0.00,,,0.01,WUHU216HW,2013-02-12 15:50:00,
2013-02-12 07:55:00,44.6,42.8,30.30,ESE,113,0.4,1.3,93,0.00,,,0.01,WUHU216HW,2013-02-12 15:55:00,
2013-02-12 08:00:00,44.6,42.8,30.31,SW,225,0.0,0.7,93,0.00,,,0.01,WUHU216HW,2013-02-12 16:00:00,
2013-02-12 08:05:00,44.6,42.8,30.30,SSE,158,0.0,1.1,93,0.00,,,0.01,WUHU216HW,2013-02-12 16:05:00,
2013-02-12 08:10:00,44.8,42.9,30.30,SSW,203,3.1,3.1,93,0.00,,,0.01,WUHU216HW,2013-02-12 16:10:00,
2013-02-12 08:15:00,45.0,43.1,30.31,SSE,158,0.4,3.1,93,0.00,,,0.01,WUHU216HW,2013-02-12 16:15:00,
2013-02-12 08:20:00,45.4,43.5,30.31,North,0,0.0,3.1,93,0.00,,,0.01,WUHU216HW,2013-02-12 16:20:00,
2013-02-12 08:25:00,45.7,43.8,30.31,North,0,0.0,0.4,93,0.00,,,0.01,WUHU216HW,2013-02-12 16:25:00,
2013-02-12 08:30:00,45.9,44.3,30.31,North,0,0.0,0.0,94,0.00,,,0.01,WUHU216HW,2013-02-12 16:30:00,
2013-02-12 08:35:00,45.9,44.0,30.31,SE,135,4.5,4.5,93,0.00,,,0.01,WUHU216HW,2013-02-12 16:35:00,
2013-02-12 08:40:00,45.7,43.6,30.31,ESE,113,1.8,4.5,92,0.00,,,0.01,WUHU216HW,2013-02-12 16:40:00,
2013-02-12 08:45:00,45.7,43.8,30.31,ENE,68,3.1,4.9,93,0.00,,,0.01,WUHU216HW,2013-02-12 16:45:00,
2013-02-12 08:50:00,45.9,44.3,30.31,ENE,68,1.3,4.9,94,0.00,,,0.01,WUHU216HW,2013-02-12 16:50:00,
2013-02-12 08:55:00,45.9,44.3,30.32,SSE,158,3.4,3.4,94,0.00,,,0.01,WUHU216HW,2013-02-12 16:55:00,
2013-02-12 09:00:00,45.9,44.3,30.32,SSE,158,2.5,3.4,94,0.00,,,0.01,WUHU216HW,2013-02-12 17:00:00,
2013-02-12 09:05:00,45.9,44.0,30.32,East,90,1.1,4.3,93,0.00,,,0.01,WUHU216HW,2013-02-12 17:05:00,
2013-02-12 09:10:00,45.9,44.0,30.32,SE,135,1.6,4.3,93,0.00,,,0.01,WUHU216HW,2013-02-12 17:10:00,
2013-02-12 09:15:00,45.9,44.0,30.32,SSW,203,2.0,2.5,93,0.00,,,0.01,WUHU216HW,2013-02-12 17:15:00,
2013-02-12 09:20:00,46.1,44.2,30.32,South,180,0.4,2.5,93,0.00,,,0.01,WUHU216HW,2013-02-12 17:20:00,
2013-02-12 09:25:00,46.1,44.2,30.32,SE,135,1.1,1.3,93,0.00,,,0.01,WUHU216HW,2013-02-12 17:25:00,
2013-02-12 09:30:00,46.1,44.2,30.33,South,180,0.2,1.1,93,0.00,,,0.01,WUHU216HW,2013-02-12 17:30:00,
2013-02-12 09:35:00,45.9,44.0,30.33,SE,135,0.4,0.4,93,0.00,,,0.01,WUHU216HW,2013-02-12 17:35:00,
2013-02-12 09:40:00,46.1,44.2,30.32,South,180,0.7,1.1,93,0.00,,,0.01,WUHU216HW,2013-02-12 17:40:00,
2013-02-12 09:45:00,46.1,44.2,30.32,South,180,0.2,1.1,93,0.00,,,0.01,WUHU216HW,2013-02-12 17:45:00,
2013-02-12 09:50:00,46.1,44.2,30.32,East,90,0.9,0.9,93,0.00,,,0.01,WUHU216HW,2013-02-12 17:50:00,
2013-02-12 09:55:00,46.1,44.2,30.32,East,90,0.0,0.9,93,0.00,,,0.01,WUHU216HW,2013-02-12 17:55:00,
2013-02-12 10:00:00,46.1,44.2,30.32,ESE,113,0.0,0.4,93,0.00,,,0.01,WUHU216HW,2013-02-12 18:00:00,
2013-02-12 10:05:00,46.1,44.2,30.32,NNE,23,0.4,0.4,93,0.00,,,0.01,WUHU216HW,2013-02-12 18:05:00,
2013-02-12 10:10:00,46.1,44.2,30.32,NNE,23,0.0,0.4,93,0.00,,,0.01,WUHU216HW,2013-02-12 18:10:00,
2013-02-12 10:15:00,46.1,44.2,30.32,ENE,68,1.1,1.1,93,0.00,,,0.01,WUHU216HW,2013-02-12 18:15:00,
2013-02-12 10:20:00,46.3,44.4,30.32,SSW,203,0.9,1.1,93,0.00,,,0.01,WUHU216HW,2013-02-12 18:20:00,
2013-02-12 10:25:00,46.3,44.4,30.32,East,90,1.3,1.6,93,0.00,,,0.01,WUHU216HW,2013-02-12 18:25:00,
2013-02-12 10:30:00,46.3,44.4,30.32,SW,225,0.0,1.6,93,0.00,,,0.01,WUHU216HW,2013-02-12 18:30:00,
2013-02-12 10:35:00,46.3,44.4,30.32,SSE,158,0.0,0.9,93,0.00,,,0.01,WUHU216HW,2013-02-12 18:35:00,
2013-02-12 10:40:00,46.4,44.6,30.33,SE,135,2.7,2.7,93,0.00,,,0.01,WUHU216HW,2013-02-12 18:40:00,
2013-02-12 10:45:00,46.4,44.6,30.33,South,180,1.8,4.3,93,0.00,,,0.01,WUHU216HW,2013-02-12 18:45:00,
2013-02-12 10:50:00,46.4,44.6,30.33,SW,225,0.0,4.3,93,0.00,,,0.01,WUHU216HW,2013-02-12 18:50:00,
2013-02-12 10:55:00,46.4,44.6,30.33,SW,225,0.4,1.8,93,0.00,,,0.01,WUHU216HW,2013-02-12 18:55:00,
2013-02-12 11:00:00,46.4,44.6,30.33,SE,135,1.3,1.3,93,0.00,,,0.01,WUHU216HW,2013-02-12 19:00:00,
2013-02-12 11:05:00,46.4,44.6,30.34,SW,225,1.6,1.6,93,0.00,,,0.01,WUHU216HW,2013-02-12 19:05:00,
2013-02-12 11:10:00,46.4,44.6,30.34,ESE,113,0.0,1.6,93,0.00,,,0.01,WUHU216HW,2013-02-12 19:10:00,
2013-02-12 11:15:00,46.6,44.7,30.34,West,270,0.0,0.2,93,0.00,,,0.01,WUHU216HW,2013-02-12 19:15:00,
2013-02-12 11:20:00,46.6,44.7,30.34,SE,135,0.4,0.4,93,0.00,,,0.01,WUHU216HW,2013-02-12 19:20:00,
2013-02-12 11:25:00,46.6,44.7,30.33,ESE,113,0.0,0.4,93,0.00,,,0.01,WUHU216HW,2013-02-12 19:25:00,
2013-02-12 11:30:00,46.6,44.7,30.33,ESE,113,1.6,1.6,93,0.00,,,0.01,WUHU216HW,2013-02-12 19:30:00,
2013-02-12 11:35:00,46.8,44.9,30.33,ENE,68,1.1,1.6,93,0.00,,,0.01,WUHU216HW,2013-02-12 19:35:00,
2013-02-12 11:40:00,46.8,44.9,30.32,ESE,113,0.9,1.6,93,0.00,,,0.01,WUHU216HW,2013-02-12 19:40:00,
2013-02-12 11:45:00,46.8,44.9,30.32,ESE,113,0.0,0.9,93,0.00,,,0.01,WUHU216HW,2013-02-12 19:45:00,
2013-02-12 11:50:00,47.0,45.1,30.32,ESE,113,0.0,0.9,93,0.00,,,0.01,WUHU216HW,2013-02-12 19:50:00,
2013-02-12 11:55:00,47.0,45.1,30.32,ENE,68,0.9,0.9,93,0.00,,,0.01,WUHU216HW,2013-02-12 19:55:00,
2013-02-12 12:00:00,47.2,45.3,30.32,SW,225,0.9,0.9,93,0.00,,,0.01,WUHU216HW,2013-02-12 20:00:00,
2013-02-12 12:05:00,47.2,45.3,30.32,SW,225,0.9,0.9,93,0.00,,,0.01,WUHU216HW,2013-02-12 20:05:00,
2013-02-12 12:10:00,47.2,45.3,30.32,SSE,158,0.0,0.9,93,0.00,,,0.01,WUHU216HW,2013-02-12 20:10:00,
2013-02-12 12:15:00,47.3,45.5,30.32,SSE,158,0.0,0.9,93,0.00,,,0.01,WUHU216HW,2013-02-12 20:15:00,
2013-02-12 12:20:00,47.5,45.6,30.32,West,270,0.2,0.2,93,0.00,,,0.01,WUHU216HW,2013-02-12 20:20:00,
2013-02-12 12:25:00,47.5,45.6,30.32,WSW,248,0.7,0.7,93,0.00,,,0.01,WUHU216HW,2013-02-12 20:25:00,
2013-02-12 12:30:00,48.1,46.2,30.32,North,0,0.0,0.7,93,0.00,,,0.01,WUHU216HW,2013-02-12 20:30:00,
2013-02-12 12:35:00,48.2,46.4,30.31,North,0,0.0,0.7,93,0.00,,,0.01,WUHU216HW,2013-02-12 20:35:00,
2013-02-12 12:40:00,48.6,46.5,30.31,North,0,0.0,0.0,92,0.00,,,0.01,WUHU216HW,2013-02-12 20:40:00,
2013-02-12 12:45:00,48.8,46.3,30.31,North,0,0.0,0.0,91,0.00,,,0.01,WUHU216HW,2013-02-12 20:45:00,
2013-02-12 12:50:00,48.6,46.2,30.30,North,0,0.0,0.0,91,0.00,,,0.01,WUHU216HW,2013-02-12 20:50:00,
2013-02-12 12:55:00,48.4,46.3,30.30,North,0,0.0,0.0,92,0.00,,,0.01,WUHU216HW,2013-02-12 20:55:00,
2013-02-12 13:00:00,48.2,46.1,30.30,North,0,0.0,0.0,92,0.00,,,0.01,WUHU216HW,2013-02-12 21:00:00,
2013-02-12 13:05:00,48.6,46.5,30.30,North,0,0.0,0.0,92,0.00,,,0.01,WUHU216HW,2013-02-12 21:05:00,
2013-02-12 13:10:00,48.6,46.5,30.30,North,0,0.0,0.0,92,0.00,,,0.01,WUHU216HW,2013-02-12 21:10:00,
2013-02-12 13:15:00,48.6,46.5,30.29,North,0,0.0,0.0,92,0.00,,,0.01,WUHU216HW,2013-02-12 21:15:00,
2013-02-12 13:20:00,48.8,46.6,30.29,North,0,0.0,0.0,92,0.00,,,0.01,WUHU216HW,2013-02-12 21:20:00,
2013-02-12 13:25:00,48.8,46.3,30.29,North,0,0.0,0.0,91,0.00,,,0.01,WUHU216HW,2013-02-12 21:25:00,
2013-02-12 13:30:00,49.1,46.6,30.29,North,0,0.0,0.0,91,0.00,,,0.01,WUHU216HW,2013-02-12 21:30:00,
2013-02-12 13:35:00,49.3,46.8,30.29,North,0,0.0,0.0,91,0.00,,,0.01,WUHU216HW,2013-02-12 21:35:00,
2013-02-12 13:40:00,49.5,47.0,30.29,North,0,0.0,0.0,91,0.00,,,0.01,WUHU216HW,2013-02-12 21:40:00,
2013-02-12 13:45:00,49.7,46.8,30.29,SSW,203,5.4,5.4,90,0.00,,,0.01,WUHU216HW,2013-02-12 21:45:00,
2013-02-12 13:50:00,49.7,46.8,30.29,SSE,158,3.8,5.4,90,0.00,,,0.01,WUHU216HW,2013-02-12 21:50:00,
2013-02-12 13:55:00,49.7,46.5,30.29,East,90,1.3,7.2,89,0.00,,,0.01,WUHU216HW,2013-02-12 21:55:00,
2013-02-12 14:00:00,49.9,46.7,30.29,SSW,203,0.7,7.2,89,0.00,,,0.01,WUHU216HW,2013-02-12 22:00:00,
2013-02-12 14:05:00,49.7,46.5,30.28,SSW,203,5.4,5.4,89,0.00,,,0.01,WUHU216HW,2013-02-12 22:05:00,
2013-02-12 14:10:00,49.7,46.5,30.28,South,180,4.0,5.4,89,0.00,,,0.01,WUHU216HW,2013-02-12 22:10:00,
2013-02-12 14:15:00,49.9,46.7,30.28,SW,225,1.8,5.4,89,0.00,,,0.01,WUHU216HW,2013-02-12 22:15:00,
2013-02-12 14:20:00,50.0,46.9,30.27,SSW,203,6.5,6.5,89,0.00,,,0.01,WUHU216HW,2013-02-12 22:20:00,
2013-02-12 14:25:00,50.4,46.9,30.27,NNW,338,2.5,6.5,88,0.00,,,0.01,WUHU216HW,2013-02-12 22:25:00,
2013-02-12 14:30:00,50.4,46.6,30.27,SE,135,2.7,6.5,87,0.00,,,0.01,WUHU216HW,2013-02-12 22:30:00,
2013-02-12 14:35:00,50.4,46.6,30.26,ESE,113,4.7,4.7,87,0.00,,,0.01,WUHU216HW,2013-02-12 22:35:00,
2013-02-12 14:40:00,50.4,46.3,30.26,East,90,5.8,5.8,86,0.00,,,0.01,WUHU216HW,2013-02-12 22:40:00,
2013-02-12 14:45:00,50.4,46.6,30.25,SSE,158,2.5,5.8,87,0.00,,,0.01,WUHU216HW,2013-02-12 22:45:00,
2013-02-12 14:50:00,50.4,46.3,30.25,SSE,158,9.2,9.2,86,0.00,,,0.01,WUHU216HW,2013-02-12 22:50:00,
2013-02-12 14:55:00,50.4,46.3,30.24,East,90,4.0,9.2,86,0.00,,,0.01,WUHU216HW,2013-02-12 22:55:00,
2013-02-12 15:00:00,50.4,46.6,30.25,NE,45,1.3,4.5,87,0.00,,,0.01,WUHU216HW,2013-02-12 23:00:00,
2013-02-12 15:05:00,50.4,46.3,30.26,East,90,6.5,6.5,86,0.00,,,0.01,WUHU216HW,2013-02-12 23:05:00,
2013-02-12 15:10:00,50.4,46.3,30.26,SSE,158,4.3,6.5,86,0.00,,,0.01,WUHU216HW,2013-02-12 23:10:00,
2013-02-12 15:15:00,50.6,46.4,30.26,SE,135,4.0,6.5,86,0.00,,,0.01,WUHU216HW,2013-02-12 23:15:00,
2013-02-12 15:20:00,50.8,47.0,30.25,SSW,203,4.9,4.9,87,0.00,,,0.01,WUHU216HW,2013-02-12 23:20:00,
2013-02-12 15:25:00,51.1,47.0,30.25,SE,135,8.5,8.5,86,0.00,,,0.01,WUHU216HW,2013-02-12 23:25:00,
2013-02-12 15:30:00,51.5,47.1,30.26,SE,135,4.9,8.5,85,0.00,,,0.01,WUHU216HW,2013-02-12 23:30:00,
2013-02-12 15:35:00,51.5,47.1,30.26,SSE,158,5.1,8.5,85,0.00,,,0.01,WUHU216HW,2013-02-12 23:35:00,
2013-02-12 15:40:00,51.5,46.8,30.25,SW,225,4.7,5.1,84,0.00,,,0.01,WUHU216HW,2013-02-12 23:40:00,
2013-02-12 15:45:00,51.8,46.8,30.26,West,270,4.7,5.1,83,0.00,,,0.01,WUHU216HW,2013-02-12 23:45:00,
2013-02-12 15:50:00,51.8,46.5,30.25,SE,135,7.4,7.4,82,0.00,,,0.01,WUHU216HW,2013-02-12 23:50:00,
2013-02-12 15:55:00,51.7,46.6,30.24,NE,45,4.3,7.4,83,0.00,,,0.01,WUHU216HW,2013-02-12 23:55:00,
2013-02-12 16:00:00,51.5,46.4,30.24,SE,135,4.9,7.4,83,0.00,,,0.01,WUHU216HW,2013-02-13 00:00:00,
2013-02-12 16:05:00,51.5,46.4,30.24,North,0,5.4,5.4,83,0.00,,,0.01,WUHU216HW,2013-02-13 00:05:00,
2013-02-12 16:10:00,51.5,46.4,30.23,South,180,3.1,5.4,83,0.00,,,0.01,WUHU216HW,2013-02-13 00:10:00,
2013-02-12 16:15:00,51.3,46.3,30.23,SSW,203,7.2,7.2,83,0.00,,,0.01,WUHU216HW,2013-02-13 00:15:00,
2013-02-12 16:20:00,51.3,46.3,30.23,SSW,203,4.3,7.2,83,0.00,,,0.01,WUHU216HW,2013-02-13 00:20:00,
2013-02-12 16:25:00,51.1,46.1,30.22,ENE,68,1.1,7.2,83,0.00,,,0.01,WUHU216HW,2013-02-13 00:25:00,
2013-02-12 16:30:00,51.1,46.5,30.22,SSE,158,9.6,9.6,84,0.00,,,0.01,WUHU216HW,2013-02-13 00:30:00,
2013-02-12 16:35:00,51.1,46.5,30.23,SW,225,7.8,9.6,84,0.00,,,0.01,WUHU216HW,2013-02-13 00:35:00,
2013-02-12 16:40:00,51.1,46.5,30.23,SW,225,2.7,7.8,84,0.00,,,0.01,WUHU216HW,2013-02-13 00:40:00,
2013-02-12 16:45:00,50.9,46.3,30.24,SE,135,7.2,7.2,84,0.00,,,0.01,WUHU216HW,2013-02-13 00:45:00,
2013-02-12 16:50:00,50.8,46.1,30.24,ESE,113,10.3,10.3,84,0.00,,,0.01,WUHU216HW,2013-02-13 00:50:00,
2013-02-12 16:55:00,50.8,46.1,30.24,SW,225,3.4,10.3,84,0.00,,,0.01,WUHU216HW,2013-02-13 00:55:00,
2013-02-12 17:00:00,50.8,46.4,30.24,South,180,9.8,10.3,85,0.00,,,0.01,WUHU216HW,2013-02-13 01:00:00,
2013-02-12 17:05:00,50.6,46.2,30.25,SSW,203,3.4,9.8,85,0.00,,,0.01,WUHU216HW,2013-02-13 01:05:00,
2013-02-12 17:10:00,50.4,46.3,30.24,SW,225,7.6,9.8,86,0.00,,,0.01,WUHU216HW,2013-02-13 01:10:00,
2013-02-12 17:15:00,50.4,46.3,30.24,ESE,113,4.9,7.6,86,0.00,,,0.01,WUHU216HW,2013-02-13 01:15:00,
2013-02-12 17:20:00,50.0,45.9,30.24,East,90,3.8,7.6,86,0.00,,,0.01,WUHU216HW,2013-02-13 01:20:00,
2013-02-12 17:25:00,50.0,45.9,30.24,SSE,158,6.5,6.5,86,0.00,,,0.01,WUHU216HW,2013-02-13 01:25:00,
2013-02-12 17:30:00,50.0,45.9,30.24,South,180,3.1,6.5,86,0.00,,,0.01,WUHU216HW,2013-02-13 01:30:00,
2013-02-12 17:35:00,49.9,46.1,30.24,SW,225,6.9,6.9,87,0.00,,,0.01,WUHU216HW,2013-02-13 01:35:00,
2013-02-12 17:40:00,49.9,45.8,30.24,SSE,158,1.1,6.9,86,0.00,,,0.01,WUHU216HW,2013-02-13 01:40:00,
2013-02-12 17:45:00,49.7,45.6,30.25,SW,225,3.8,6.9,86,0.00,,,0.01,WUHU216HW,2013-02-13 01:45:00,
2013-02-12 17:50:00,49.7,45.6,30.25,SSW,203,1.8,3.8,86,0.00,,,0.01,WUHU216HW,2013-02-13 01:50:00,
2013-02-12 17:55:00,49.7,45.9,30.25,East,90,4.7,4.7,87,0.00,,,0.01,WUHU216HW,2013-02-13 01:55:00,
2013-02-12 18:00:00,49.5,45.7,30.24,ESE,113,4.9,4.9,87,0.00,,,0.01,WUHU216HW,2013-02-13 02:00:00,
2013-02-12 18:05:00,49.3,45.5,30.25,SW,225,8.9,8.9,87,0.00,,,0.01,WUHU216HW,2013-02-13 02:05:00,
2013-02-12 18:10:00,49.3,45.5,30.24,SW,225,6.9,8.9,87,0.00,,,0.01,WUHU216HW,2013-02-13 02:10:00,
2013-02-12 18:15:00,49.3,45.5,30.24,ENE,68,3.8,8.9,87,0.00,,,0.01,WUHU216HW,2013-02-13 02:15:00,
2013-02-12 18:20:00,49.3,45.5,30.24,SE,135,4.3,8.7,87,0.00,,,0.01,WUHU216HW,2013-02-13 02:20:00,
2013-02-12 18:25:00,49.3,45.5,30.24,ENE,68,2.9,9.2,87,0.00,,,0.01,WUHU216HW,2013-02-13 02:25:00,
2013-02-12 18:30:00,49.3,45.5,30.24,NNE,23,0.9,9.2,87,0.00,,,0.01,WUHU216HW,2013-02-13 02:30:00,
2013-02-12 18:35:00,49.1,45.4,30.24,SE,135,1.1,3.4,87,0.00,,,0.01,WUHU216HW,2013-02-13 02:35:00,
2013-02-12 18:40:00,49.1,45.4,30.24,SSW,203,3.6,5.4,87,0.00,,,0.01,WUHU216HW,2013-02-13 02:40:00,
2013-02-12 18:45:00,49.1,45.7,30.24,SE,135,1.1,5.4,88,0.00,,,0.01,WUHU216HW,2013-02-13 02:45:00,
2013-02-12 18:50:00,49.1,45.7,30.24,East,90,6.0,6.0,88,0.00,,,0.01,WUHU216HW,2013-02-13 02:50:00,
2013-02-12 18:55:00,49.0,45.5,30.24,NNE,23,2.2,7.2,88,0.00,,,0.01,WUHU216HW,2013-02-13 02:55:00,
2013-02-12 19:00:00,49.0,45.5,30.24,SSW,203,4.7,7.2,88,0.00,,,0.01,WUHU216HW,2013-02-13 03:00:00,
2013-02-12 19:05:00,49.0,45.5,30.24,SW,225,5.4,6.3,88,0.00,,,0.01,WUHU216HW,2013-02-13 03:05:00,
2013-02-12 19:10:00,49.0,45.5,30.24,South,180,4.0,5.4,88,0.00,,,0.01,WUHU216HW,2013-02-13 03:10:00,
2013-02-12 19:15:00,49.0,45.5,30.23,East,90,5.8,5.8,88,0.00,,,0.01,WUHU216HW,2013-02-13 03:15:00,
2013-02-12 19:20:00,49.0,45.5,30.23,WSW,248,0.9,5.8,88,0.00,,,0.01,WUHU216HW,2013-02-13 03:20:00,
2013-02-12 19:25:00,49.0,45.5,30.22,SW,225,1.8,7.6,88,0.00,,,0.01,WUHU216HW,2013-02-13 03:25:00,
2013-02-12 19:30:00,48.8,45.4,30.22,SSW,203,2.5,7.6,88,0.00,,,0.01,WUHU216HW,2013-02-13 03:30:00,
2013-02-12 19:35:00,48.8,45.4,30.22,SE,135,5.1,5.8,88,0.00,,,0.01,WUHU216HW,2013-02-13 03:35:00,
2013-02-12 19:40:00,48.6,45.2,30.23,SE,135,6.3,6.3,88,0.00,,,0.01,WUHU216HW,2013-02-13 03:40:00,
2013-02-12 19:45:00,48.6,45.2,30.23,South,180,4.7,6.3,88,0.00,,,0.01,WUHU216HW,2013-02-13 03:45:00,
2013-02-12 19:50:00,48.6,45.2,30.22,SSE,158,4.5,6.3,88,0.00,,,0.01,WUHU216HW,2013-02-13 03:50:00,
2013-02-12 19:55:00,48.6,45.2,30.22,NW,315,2.0,4.7,88,0.00,,,0.01,WUHU216HW,2013-02-13 03:55:00,
2013-02-12 20:00:00,48.6,45.2,30.22,West,270,5.6,5.6,88,0.00,,,0.01,WUHU216HW,2013-02-13 04:00:00,
2013-02-12 20:05:00,48.6,45.2,30.23,East,90,2.9,5.6,88,0.00,,,0.01,WUHU216HW,2013-02-13 04:05:00,
2013-02-12 20:10:00,48.6,45.2,30.24,South,180,5.6,5.6,88,0.00,,,0.01,WUHU216HW,2013-02-13 04:10:00,
2013-02-12 20:15:00,48.4,45.1,30.24,East,90,2.2,5.6,88,0.00,,,0.01,WUHU216HW,2013-02-13 04:15:00,
2013-02-12 20:20:00,48.4,45.1,30.24,ESE,113,3.8,3.8,88,0.00,,,0.01,WUHU216HW,2013-02-13 04:20:00,
2013-02-12 20:25:00,48.4,45.1,30.24,South,180,9.2,9.2,88,0.00,,,0.01,WUHU216HW,2013-02-13 04:25:00,
2013-02-12 20:30:00,48.6,45.2,30.24,North,0,0.0,9.2,88,0.00,,,0.01,WUHU216HW,2013-02-13 04:30:00,
2013-02-12 20:35:00,49.0,45.5,30.24,North,0,0.0,9.2,88,0.00,,,0.01,WUHU216HW,2013-02-13 04:35:00,
2013-02-12 20:40:00,49.3,45.5,30.24,North,0,0.0,0.0,87,0.00,,,0.01,WUHU216HW,2013-02-13 04:40:00,
2013-02-12 20:45:00,49.0,45.3,30.24,North,0,0.0,0.0,87,0.00,,,0.01,WUHU216HW,2013-02-13 04:45:00,
2013-02-12 20:50:00,48.6,44.9,30.23,North,0,0.0,0.0,87,0.00,,,0.01,WUHU216HW,2013-02-13 04:50:00,
2013-02-12 20:55:00,48.4,45.1,30.24,North,0,0.0,0.0,88,0.00,,,0.01,WUHU216HW,2013-02-13 04:55:00,
2013-02-12 21:00:00,48.2,44.9,30.24,North,0,0.0,0.0,88,0.00,,,0.01,WUHU216HW,2013-02-13 05:00:00,
2013-02-12 21:05:00,48.1,44.7,30.24,North,0,0.0,0.0,88,0.00,,,0.01,WUHU216HW,2013-02-13 05:05:00,
2013-02-12 21:10:00,47.9,44.6,30.24,North,0,0.0,0.0,88,0.00,,,0.01,WUHU216HW,2013-02-13 05:10:00,
2013-02-12 21:15:00,47.9,44.6,30.24,North,0,0.0,0.0,88,0.00,,,0.01,WUHU216HW,2013-02-13 05:15:00,
2013-02-12 21:20:00,47.7,44.4,30.24,North,0,0.0,0.0,88,0.00,,,0.01,WUHU216HW,2013-02-13 05:20:00,
2013-02-12 21:25:00,47.7,44.4,30.25,North,0,0.0,0.0,88,0.00,,,0.01,WUHU216HW,2013-02-13 05:25:00,
2013-02-12 21:30:00,47.5,44.2,30.25,North,0,0.0,0.0,88,0.00,,,0.01,WUHU216HW,2013-02-13 05:30:00,
2013-02-12 21:35:00,47.5,44.2,30.24,North,0,0.0,0.0,88,0.00,,,0.01,WUHU216HW,2013-02-13 05:35:00,
2013-02-12 21:40:00,47.5,44.5,30.24,North,0,0.0,0.0,89,0.00,,,0.01,WUHU216HW,2013-02-13 05:40:00,
2013-02-12 21:45:00,47.7,44.6,30.23,SSW,203,7.6,7.6,89,0.00,,,0.01,WUHU216HW,2013-02-13 05:45:00,
2013-02-12 21:50:00,47.7,44.6,30.23,North,0,0.0,7.6,89,0.00,,,0.01,WUHU216HW,2013-02-13 05:50:00,
2013-02-12 21:55:00,47.5,44.5,30.23,SE,135,8.5,8.5,89,0.00,,,0.01,WUHU216HW,2013-02-13 05:55:00,
2013-02-12 22:00:00,47.5,44.5,30.23,NW,315,1.8,8.5,89,0.00,,,0.01,WUHU216HW,2013-02-13 06:00:00,
2013-02-12 22:05:00,47.5,44.5,30.23,West,270,3.6,8.5,89,0.00,,,0.01,WUHU216HW,2013-02-13 06:05:00,
2013-02-12 22:10:00,47.5,44.5,30.23,North,0,2.9,4.5,89,0.00,,,0.01,WUHU216HW,2013-02-13 06:10:00,
2013-02-12 22:15:00,47.5,44.5,30.23,East,90,3.4,4.5,89,0.00,,,0.01,WUHU216HW,2013-02-13 06:15:00,
2013-02-12 22:20:00,47.5,44.5,30.23,SSE,158,2.5,3.4,89,0.00,,,0.01,WUHU216HW,2013-02-13 06:20:00,
2013-02-12 22:25:00,47.5,44.5,30.23,SSE,158,4.9,4.9,89,0.00,,,0.01,WUHU216HW,2013-02-13 06:25:00,
2013-02-12 22:30:00,47.7,44.6,30.23,SE,135,4.0,4.9,89,0.00,,,0.01,WUHU216HW,2013-02-13 06:30:00,
2013-02-12 22:35:00,47.7,44.6,30.23,ENE,68,3.1,4.9,89,0.00,,,0.01,WUHU216HW,2013-02-13 06:35:00,
2013-02-12 22:40:00,47.7,44.6,30.23,South,180,4.9,4.9,89,0.00,,,0.01,WUHU216HW,2013-02-13 06:40:00,
2013-02-12 22:45:00,47.7,44.6,30.24,ESE,113,3.4,6.0,89,0.00,,,0.01,WUHU216HW,2013-02-13 06:45:00,
2013-02-12 22:50:00,47.9,44.8,30.24,NNW,338,3.4,7.4,89,0.00,,,0.01,WUHU216HW,2013-02-13 06:50:00,
2013-02-12 22:55:00,47.9,44.8,30.23,SE,135,2.2,7.4,89,0.00,,,0.01,WUHU216HW,2013-02-13 06:55:00,
2013-02-12 23:00:00,47.9,45.2,30.23,ESE,113,3.4,5.4,90,0.00,,,0.01,WUHU216HW,2013-02-13 07:00:00,
2013-02-12 23:05:00,48.1,45.0,30.22,SSE,158,6.3,8.1,89,0.00,,,0.01,WUHU216HW,2013-02-13 07:05:00,
2013-02-12 23:10:00,48.1,45.0,30.22,ESE,113,8.7,8.7,89,0.00,,,0.01,WUHU216HW,2013-02-13 07:10:00,
2013-02-12 23:15:00,48.1,45.0,30.22,ENE,68,6.7,8.7,89,0.00,,,0.01,WUHU216HW,2013-02-13 07:15:00,
2013-02-12 23:20:00,48.1,45.0,30.22,SSE,158,2.2,9.8,89,0.00,,,0.01,WUHU216HW,2013-02-13 07:20:00,
2013-02-12 23:25:00,48.1,45.0,30.22,SSE,158,6.9,9.8,89,0.00,,,0.01,WUHU216HW,2013-02-13 07:25:00,
2013-02-12 23:30:00,48.1,45.0,30.22,ESE,113,6.9,6.9,89,0.00,,,0.01,WUHU216HW,2013-02-13 07:30:00,
2013-02-12 23:35:00,48.1,45.0,30.21,SE,135,4.3,7.6,89,0.00,,,0.01,WUHU216HW,2013-02-13 07:35:00,
2013-02-12 23:40:00,48.2,45.2,30.21,SSE,158,4.5,7.6,89,0.00,,,0.01,WUHU216HW,2013-02-13 07:40:00,
2013-02-12 23:45:00,48.2,45.2,30.21,ESE,113,6.0,6.0,89,0.00,,,0.01,WUHU216HW,2013-02-13 07:45:00,
2013-02-12 23:50:00,48.2,45.2,30.20,SSE,158,7.6,10.5,89,0.00,,,0.01,WUHU216HW,2013-02-13 07:50:00,
2013-02-12 23:55:00,48.2,45.2,30.20,ESE,113,11.9,11.9,89,0.00,,,0.01,WUHU216HW,2013-02-13 07:55:00,